TimeCDT,TemperatureF,Dew PointF,Humidity,Sea Level PressureIn,VisibilityMPH,Wind Direction,Wind SpeedMPH,Gust SpeedMPH,PrecipitationIn,Events,Conditions,WindDirDegrees,DateUTC
12:53 AM,62.1,46.9,58,29.88,10.0,NNW,11.5,-,N/A,,Clear,340,2012-10-01 05:53:00
1:53 AM,61.0,46.0,58,29.89,10.0,NNW,13.8,-,N/A,,Scattered Clouds,340,2012-10-01 06:53:00
2:53 AM,59.0,43.0,55,29.90,10.0,NNW,12.7,21.9,N/A,,Scattered Clouds,340,2012-10-01 07:53:00
3:53 AM,57.9,43.0,58,29.91,10.0,NNW,11.5,-,N/A,,Partly Cloudy,340,2012-10-01 08:53:00
4:53 AM,55.0,42.1,62,29.93,10.0,NNW,10.4,-,N/A,,Clear,330,2012-10-01 09:53:00
5:53 AM,52.0,42.1,69,29.95,10.0,NNW,9.2,-,N/A,,Clear,330,2012-10-01 10:53:00
6:53 AM,48.9,42.1,77,29.97,10.0,NW,9.2,-,N/A,,Clear,320,2012-10-01 11:53:00
7:53 AM,48.9,42.1,77,29.99,10.0,NW,10.4,-,N/A,,Clear,320,2012-10-01 12:53:00
8:53 AM,55.4,41.0,58,29.99,10.0,NNW,13.8,-,N/A,,Clear,330,2012-10-01 13:53:00
9:53 AM,57.0,41.0,55,30.01,10.0,NNW,15.0,20.7,N/A,,Clear,330,2012-10-01 14:53:00
10:53 AM,59.0,41.0,51,30.03,10.0,NNW,15.0,25.3,N/A,,Clear,330,2012-10-01 15:53:00
11:53 AM,62.1,37.0,39,30.02,10.0,North,19.6,26.5,N/A,,Clear,350,2012-10-01 16:53:00
12:53 PM,64.0,36.0,35,30.01,10.0,NNW,18.4,26.5,N/A,,Clear,330,2012-10-01 17:53:00
1:53 PM,64.9,33.1,31,29.99,10.0,North,16.1,25.3,N/A,,Clear,350,2012-10-01 18:53:00
2:53 PM,66.0,28.9,25,29.98,10.0,NNW,17.3,26.5,N/A,,Clear,340,2012-10-01 19:53:00
3:53 PM,66.9,30.0,25,29.98,10.0,NNW,13.8,-,N/A,,Clear,340,2012-10-01 20:53:00
4:53 PM,66.0,28.0,24,29.99,10.0,NNW,11.5,-,N/A,,Clear,330,2012-10-01 21:53:00
5:53 PM,64.0,28.0,26,29.99,10.0,NNW,11.5,-,N/A,,Clear,330,2012-10-01 22:53:00
6:53 PM,60.1,28.9,31,30.00,10.0,NNW,6.9,-,N/A,,Clear,340,2012-10-01 23:53:00
7:53 PM,50.0,28.0,43,30.02,10.0,NNW,5.8,-,N/A,,Clear,330,2012-10-02 00:53:00
8:53 PM,48.9,28.9,46,30.01,10.0,NW,3.5,-,N/A,,Clear,320,2012-10-02 01:53:00
9:53 PM,39.9,28.9,65,30.03,10.0,WNW,3.5,-,N/A,,Clear,300,2012-10-02 02:53:00
10:53 PM,39.9,28.9,65,30.02,10.0,Calm,Calm,-,N/A,,Clear,0,2012-10-02 03:53:00
11:53 PM,41.0,28.9,62,30.01,10.0,Calm,Calm,-,N/A,,Clear,0,2012-10-02 04:53:00